FW1946 Weather Reports


Display with metric or nautical units.
time (UTC)temp
F
wind
direction
speed
MPH
gust
MPH
rain 1hr
in
rain 24hr
in
rain mn
in
humidity
%
barometer
mb
20260502161537 56 355 2.0 5.0 0.00 0.00 0.00 80 1016.6
20260502151530 55 342 2.0 4.0 0.00 0.00 0.00 81 1016.1
20260502130128 53 16 1.0 4.0 0.00 0.00 0.00 83 1014.9
20260502123038 53 355 1.0 4.0 0.00 0.00 0.00 82 1014.8
20260502121607 54 337 0.0 2.0 0.00 0.00 0.00 82 1014.8
20260502113036 55 232 0.0 2.0 0.00 0.00 0.00 78 1014.8
20260502111536 56 208 0.0 2.0 0.00 0.00 0.00 78 1014.8
20260502110046 57 317 1.0 6.0 0.00 0.00 0.00 77 1015.0
20260502104607 57 197 0.0 4.0 0.00 0.00 0.00 75 1015.5
20260502103036 58 197 1.0 7.0 0.00 0.00 0.00 74 1015.4
20260502100153 58 299 1.0 6.0 0.00 0.00 0.00 72 1015.5
20260502091534 59 280 2.0 10.0 0.00 0.00 0.00 72 1015.8
20260502090137 57 322 2.0 11.0 0.00 0.00 0.00 77 1015.5
20260502071530 62 215 0.0 3.0 0.00 0.00 0.00 62 1015.4
20260502064537 62 281 0.0 5.0 0.00 0.00 0.00 62 1015.6
20260502063035 63 316 0.0 5.0 0.00 0.00 0.00 61 1015.5
20260502061534 63 329 1.0 6.0 0.00 0.00 0.00 61 1015.4
20260502060031 63 230 1.0 4.0 0.00 0.00 0.00 61 1015.4
20260502054530 63 230 0.0 5.0 0.00 0.00 0.00 61 1015.1
20260502051532 65 230 0.0 5.0 0.00 0.00 0.00 58 1015.0
20260502044605 65 248 0.0 4.0 0.00 0.00 0.00 57 1014.9
20260502041531 66 254 1.0 9.0 0.00 0.00 0.00 57 1014.5
20260502040036 67 278 1.0 7.0 0.00 0.00 0.00 56 1014.2
20260502034536 68 295 2.0 10.0 0.00 0.00 0.00 54 1014.2
20260502033140 68 271 1.0 6.0 0.00 0.00 0.00 54 1014.2
20260502031532 68 249 2.0 7.0 0.00 0.00 0.00 54 1014.1
20260502030035 68 220 1.0 8.0 0.00 0.00 0.00 53 1013.7
20260502024538 69 240 2.0 11.0 0.00 0.00 0.00 52 1013.1
20260502023034 70 279 1.0 7.0 0.00 0.00 0.00 51 1012.8
20260502021531 71 292 1.0 7.0 0.00 0.00 0.00 50 1012.7
20260502020144 72 269 1.0 8.0 0.00 0.00 0.00 48 1012.7
20260502014530 74 294 1.0 7.0 0.00 0.00 0.00 46 1012.5
20260502013035 75 291 1.0 8.0 0.00 0.00 0.00 44 1012.5
20260502011652 76 307 2.0 8.0 0.00 0.00 0.00 42 1012.4
20260502010033 77 330 3.0 7.0 0.00 0.00 0.00 40 1012.4
20260502004532 78 320 2.0 7.0 0.00 0.00 0.00 39 1012.4
20260502001534 78 351 2.0 6.0 0.00 0.00 0.00 37 1012.6
20260502000035 77 334 2.0 5.0 0.00 0.00 0.00 38 1012.7
20260501234530 77 321 1.0 6.0 0.00 0.00 0.00 39 1012.8
20260501231606 78 333 2.0 5.0 0.00 0.00 0.00 33 1013.2
20260501224538 78 348 2.0 5.0 0.00 0.00 0.00 33 1013.8
20260501223106 77 336 3.0 8.0 0.00 0.00 0.00 34 1014.0
20260501221538 78 325 3.0 8.0 0.00 0.00 0.00 34 1014.2
20260501214537 77 7 2.0 7.0 0.00 0.00 0.00 36 1014.7
20260501213039 77 345 3.0 7.0 0.00 0.00 0.00 36 1014.8
20260501211536 76 357 1.0 5.0 0.00 0.00 0.00 37 1015.0
20260501210036 76 18 2.0 7.0 0.00 0.00 0.00 37 1015.1
20260501204536 76 322 2.0 5.0 0.00 0.00 0.00 39 1015.4
20260501203152 74 330 2.0 5.0 0.00 0.00 0.00 41 1015.6
20260501201536 72 336 2.0 4.0 0.00 0.00 0.00 43 1015.9
20260501194651 72 335 2.0 7.0 0.00 0.00 0.00 44 1016.2
20260501193039 71 333 1.0 5.0 0.00 0.00 0.00 45 1016.4
20260501191537 70 332 1.0 4.0 0.00 0.00 0.00 46 1016.6
20260501190038 69 357 1.0 4.0 0.00 0.00 0.00 48 1016.9
20260501184533 67 287 0.0 4.0 0.00 0.00 0.00 50 1017.1
20260501181607 63 344 0.0 1.0 0.00 0.00 0.00 52 1017.6
20260501174605 62 73 0.0 2.0 0.00 0.00 0.00 54 1017.8
20260501173035 59 343 1.0 2.0 0.00 0.00 0.00 56 1018.1